Vorticity
nan nan nan nan nan nan nan nan nan nan nan nan nan nan nan nan nan nan nan nan nan nan nan nan nan nan nan nan nan nan nan nan nan nan nan nan nan nan nan nan nan nan nan nan nan nan nan nan nan nan nan nan nan nan nan nan nan nan nan nan nan nan nan nan nan nan nan nan nan
nan 11 11 11 12 12 11 9 8 7 8 9 9 9 10 11 10 9 8 8 7 6 8 7 2 -1 -2 4 10 10 9 6 7 10 12 13 11 11 12 11 8 7 7 10 16 18 12 9 14 15 13 10 8 9 9 8 9 8 6 8 13 13 13 14 11 10 13 19 nan
nan 11 11 10 10 11 12 10 4 3 8 12 10 9 10 11 10 9 7 4 4 7 10 7 2 2 4 9 10 8 6 5 7 12 14 12 9 9 11 9 6 8 10 12 14 13 7 10 16 15 12 7 6 8 10 10 10 10 9 14 16 13 12 11 10 13 16 13 nan
nan 11 10 6 5 11 15 10 3 6 13 13 10 10 11 10 9 7 5 4 8 10 8 4 5 6 8 6 4 5 5 6 9 13 14 10 8 8 10 8 8 10 11 11 10 9 8 14 20 15 9 6 11 13 12 8 8 11 12 15 13 10 10 10 11 12 12 8 nan
nan 10 10 5 5 12 14 8 6 10 14 13 10 9 9 9 7 6 6 8 8 5 1 4 9 7 4 1 2 6 9 11 14 15 11 7 9 9 8 8 10 11 11 9 8 8 9 19 23 15 10 12 14 11 6 4 8 11 12 11 10 10 10 10 11 10 9 7 nan
nan 8 9 6 7 12 12 6 7 12 14 11 6 6 7 7 4 2 4 6 5 3 5 11 11 7 3 3 8 11 12 14 13 10 7 10 10 7 7 9 10 12 11 8 7 10 13 21 22 14 11 12 11 6 4 8 11 10 9 8 9 9 8 8 10 9 5 1 nan
nan 8 8 7 9 11 8 7 10 12 13 10 5 5 6 4 2 2 7 10 9 9 12 13 7 5 4 7 10 11 11 10 8 7 10 11 7 6 8 9 10 10 10 9 10 12 14 20 19 13 10 12 10 6 6 8 8 7 7 8 10 9 8 9 10 6 1 -2 nan
nan 8 8 9 9 8 7 9 12 12 13 8 3 3 5 6 6 9 13 14 12 10 11 6 0 2 5 8 9 10 10 10 10 10 11 8 6 8 10 11 11 10 10 11 11 10 14 20 17 12 10 11 8 4 2 3 6 8 9 12 11 9 8 9 6 3 0 3 nan
nan 7 8 9 8 8 8 9 11 11 10 6 3 5 7 9 10 13 16 15 9 7 8 3 0 4 7 10 11 12 12 11 10 10 9 7 8 10 12 12 10 10 11 11 9 10 16 20 14 9 8 7 2 0 -1 4 9 11 15 17 11 6 4 4 2 3 5 8 nan
nan 8 10 9 7 8 9 11 12 11 11 8 7 8 9 10 12 14 15 11 5 4 6 4 4 7 10 13 14 13 12 11 10 8 8 8 8 10 12 11 8 9 9 10 11 13 19 18 9 4 4 2 1 3 5 8 11 13 17 14 5 2 4 5 6 8 11 10 nan
nan 10 11 8 6 8 10 12 14 12 11 8 7 9 11 11 11 11 10 6 4 4 7 7 8 10 13 15 12 11 11 10 8 7 8 8 9 10 11 9 8 8 9 10 13 16 17 10 3 0 3 4 9 11 10 9 11 12 14 8 3 5 8 9 11 13 12 8 nan
nan 10 10 8 7 9 11 14 14 11 8 7 8 10 12 10 8 9 8 7 8 10 11 9 10 12 15 12 9 9 9 8 7 9 9 9 10 10 11 10 9 9 9 12 15 15 11 4 1 1 4 11 17 11 6 6 11 12 11 8 9 10 9 9 12 13 10 6 nan
nan 9 9 7 8 10 12 14 13 10 7 6 9 11 11 8 7 9 10 10 12 13 11 9 11 13 13 9 8 8 8 8 8 10 9 10 10 10 11 11 9 10 13 15 13 10 6 3 3 5 7 12 12 6 4 8 12 12 10 10 11 11 9 9 11 10 7 8 nan
nan 9 9 8 10 13 12 13 14 10 6 6 9 10 10 9 9 11 11 10 10 11 11 12 13 11 7 6 8 8 8 9 9 9 10 10 10 10 11 10 9 12 14 12 8 7 6 6 6 8 8 9 7 6 8 12 13 11 11 11 11 10 10 10 10 10 9 10 nan
nan 9 9 9 11 13 11 13 13 8 5 7 9 10 11 10 9 9 8 8 11 13 12 11 10 8 6 7 9 9 10 11 10 10 11 10 10 9 10 9 10 12 12 9 8 8 8 9 10 10 8 7 7 9 12 14 13 12 11 11 11 11 11 10 10 10 9 10 nan
nan 9 9 10 10 11 11 13 12 7 6 6 7 9 11 10 9 7 7 10 13 12 8 7 9 10 8 8 10 11 13 12 11 11 11 11 9 9 9 9 10 10 10 9 9 9 9 11 11 8 7 6 7 10 13 14 14 12 11 10 11 11 10 9 10 10 9 10 nan
nan 9 9 9 9 9 10 11 9 6 4 4 7 10 11 10 8 6 6 10 11 7 4 7 11 10 9 8 11 12 13 11 10 10 10 8 8 9 9 9 10 10 11 10 9 8 9 10 9 8 7 7 8 10 13 16 16 13 11 10 11 11 10 10 10 10 9 9 nan
nan 9 8 8 8 8 8 9 8 6 5 7 10 10 9 7 6 7 7 8 7 6 6 10 12 10 8 9 11 12 11 9 8 8 7 7 8 9 9 9 10 11 11 10 9 8 8 9 9 9 9 8 9 11 15 17 15 12 10 10 10 10 10 10 11 11 9 8 nan
nan 8 8 8 8 8 8 9 8 8 9 11 10 8 6 6 8 8 7 6 7 8 10 12 11 10 8 9 11 10 10 9 7 7 7 9 9 9 9 9 11 11 12 11 10 9 9 10 10 9 9 9 10 13 16 18 14 12 11 11 11 11 11 11 11 10 8 7 nan
nan 8 8 8 9 9 9 9 9 10 11 10 7 7 8 9 10 9 8 7 8 10 11 11 10 9 8 9 10 11 13 11 7 8 9 10 9 9 9 10 12 13 13 13 11 9 9 9 9 9 10 12 17 21 22 20 14 11 10 11 11 10 10 10 10 9 8 8 nan
nan 8 8 9 9 9 9 9 9 10 10 9 8 9 10 11 10 8 7 7 9 11 11 10 10 9 9 9 10 12 14 11 7 8 10 10 9 10 11 12 13 13 13 13 11 9 8 8 8 10 13 20 28 30 27 18 11 8 8 9 8 8 8 9 10 10 10 9 nan
nan 9 9 10 9 8 8 8 9 10 10 9 9 10 11 11 9 8 8 9 10 10 11 11 11 10 10 10 11 11 12 9 7 9 10 10 9 10 11 12 13 13 13 13 12 11 10 10 10 13 19 28 33 31 24 13 8 7 6 6 8 9 10 10 11 11 11 11 nan
nan 9 11 11 8 7 8 9 9 9 9 9 9 10 11 10 9 8 9 10 10 10 13 14 12 10 10 10 10 10 10 8 7 8 9 9 9 9 12 14 14 14 16 15 10 9 9 11 13 18 23 29 29 23 16 9 8 7 6 7 9 10 11 11 11 12 12 11 nan
nan 10 12 9 5 7 9 9 9 9 9 9 9 10 10 10 10 10 9 9 9 10 14 13 10 10 11 12 10 10 9 8 8 8 9 10 9 10 14 17 17 16 16 10 -1 -4 0 6 11 17 22 24 20 14 10 8 8 10 9 8 8 10 11 11 12 13 12 11 nan
nan 10 10 7 6 8 9 9 9 9 9 8 9 9 10 10 11 10 8 8 9 10 11 12 13 14 14 12 10 9 9 9 9 9 9 9 10 12 17 18 17 15 11 -4 -14 -10 -4 2 12 23 27 23 14 9 8 8 9 10 10 9 9 10 10 12 14 15 14 12 nan
nan 10 10 9 8 8 8 9 10 9 8 8 9 9 10 12 12 9 8 8 9 10 12 15 15 14 13 11 8 8 10 11 10 9 9 8 8 11 16 18 17 13 3 -13 -13 -5 -0 9 33 52 54 33 14 9 9 9 9 9 9 10 11 11 12 13 13 14 15 12 nan
nan 10 9 9 8 9 10 11 10 9 8 8 9 10 11 12 10 8 8 9 10 12 15 16 14 13 15 11 7 7 9 10 9 9 9 8 7 9 14 18 17 8 -8 -18 -9 -1 4 27 61 73 66 36 13 10 10 10 10 10 10 10 10 11 13 13 12 12 14 13 nan
nan 9 8 8 9 10 11 11 10 9 8 8 9 10 10 10 10 10 10 10 10 14 16 15 15 16 14 7 4 6 7 9 11 11 10 7 6 9 13 15 11 0 -13 -13 -3 2 9 41 66 58 45 27 14 11 10 11 11 11 11 10 9 11 13 13 11 10 10 13 nan
nan 8 8 9 10 11 11 11 10 9 9 10 10 9 10 11 11 11 11 9 10 14 16 14 12 10 6 3 5 7 9 12 13 10 7 5 7 9 10 11 8 -0 -9 -5 1 3 18 45 48 30 20 20 19 14 12 11 11 11 11 10 9 10 12 12 11 10 10 10 nan
nan 9 9 9 10 11 11 10 9 10 12 11 8 9 11 12 12 11 10 10 11 12 12 9 6 3 3 7 10 10 10 11 10 8 6 6 7 8 9 11 11 4 -5 -3 -0 2 21 44 37 18 13 17 20 17 13 11 11 11 10 8 8 10 11 10 9 12 13 11 nan
nan 9 9 10 11 11 10 10 10 10 11 9 8 10 11 11 11 12 11 11 10 9 7 5 5 6 9 12 11 9 9 9 9 8 7 6 6 7 9 12 11 6 -4 -4 -0 2 19 42 39 22 15 18 20 17 13 11 11 11 9 7 8 11 12 9 8 9 11 13 nan
nan 9 10 10 10 11 10 10 11 10 9 9 10 11 11 12 12 12 12 11 9 8 7 7 8 10 11 12 10 9 9 10 9 8 7 6 7 8 11 14 13 5 -5 -4 1 4 17 40 43 28 20 20 19 15 12 11 9 9 8 9 11 13 14 12 7 7 10 14 nan
nan 10 10 10 10 11 10 11 11 10 10 11 11 11 11 12 12 11 12 12 11 9 9 9 9 10 11 11 10 10 11 11 8 7 7 8 8 9 14 19 14 -0 -9 -4 3 5 17 38 44 30 22 21 19 13 10 10 9 8 8 11 14 13 10 10 10 9 10 14 nan
nan 9 10 11 11 11 11 11 10 10 11 11 11 11 12 12 11 12 12 12 11 10 9 8 9 10 11 10 9 10 11 10 8 7 8 9 9 10 16 21 10 -8 -11 -2 4 7 16 37 44 32 24 22 19 12 9 8 8 7 9 14 17 14 9 5 6 9 11 13 nan
nan 9 10 11 11 11 10 10 11 11 11 12 11 11 12 12 12 12 12 10 10 10 9 8 9 10 9 9 9 9 9 9 9 9 10 10 9 10 13 15 5 -8 -6 2 5 7 13 33 45 36 27 22 19 12 8 6 6 6 8 13 16 14 11 7 5 7 9 11 nan
nan 10 11 11 11 11 11 11 11 11 12 12 12 12 12 12 13 12 11 11 11 10 9 9 9 9 9 10 10 9 9 9 10 10 10 10 10 10 11 11 5 -2 -2 2 5 6 9 26 43 42 32 22 17 12 9 7 6 5 6 10 12 11 11 9 7 7 9 10 nan
nan 11 11 12 11 11 11 11 11 11 11 12 12 12 12 13 14 13 12 12 11 10 10 9 9 9 9 10 10 9 9 10 10 10 10 11 11 11 11 10 7 2 -1 -0 5 7 7 17 36 44 39 24 15 13 11 10 9 7 7 8 9 9 10 9 5 4 5 9 nan
nan 12 12 12 11 11 11 11 10 10 11 11 12 11 12 14 15 13 11 12 11 10 10 9 9 9 8 9 11 9 10 10 10 11 11 11 11 11 11 11 9 5 -2 -2 4 7 7 9 24 39 43 29 17 15 12 10 10 11 11 11 10 10 12 10 3 -1 -3 -1 nan
nan 12 12 12 11 11 11 10 11 11 11 11 11 11 12 15 14 11 10 11 11 11 11 10 9 9 8 11 13 10 10 10 11 12 12 12 10 10 12 12 9 5 -2 -3 3 7 8 6 15 30 41 35 22 18 14 9 8 11 14 15 13 11 13 12 6 -1 -7 -12 nan
nan 12 12 12 12 11 11 10 11 12 12 10 9 11 13 14 12 11 12 12 10 12 13 11 8 9 9 12 13 11 10 10 11 12 12 11 10 10 14 13 8 5 0 -2 2 6 8 8 14 25 39 36 23 21 16 11 8 10 13 17 15 12 11 11 8 3 -3 -10 nan
nan nan nan nan nan nan nan nan nan nan nan nan nan nan nan nan nan nan nan nan nan nan nan nan nan nan nan nan nan nan nan nan nan nan nan nan nan nan nan nan nan nan nan nan nan nan nan nan nan nan nan nan nan nan nan nan nan nan nan nan nan nan nan nan nan nan nan nan nan
CAPE
nan nan nan nan nan nan nan nan 1 1 1 nan nan nan nan nan nan nan nan 0 0 nan nan nan nan 0 0 0 2 2 2 1 0 3 3 1 0 3 3 8 10 11 11 18 28 28 48 45 24 24 17 16 14 13 13 13 25 51 51 55 48 48 48 43 39 39 37 40 67
nan nan nan nan nan nan nan nan nan nan nan nan nan nan nan nan 0 0 0 0 0 0 0 nan nan nan nan 0 1 1 0 0 0 1 1 1 0 2 2 7 10 12 12 15 25 25 52 52 31 31 19 15 15 13 13 12 27 50 50 48 36 43 43 45 45 45 41 46 72
nan nan nan nan nan nan nan nan nan nan nan nan nan nan nan 0 0 0 0 0 0 nan nan nan nan 0 0 0 0 0 0 0 0 1 1 1 0 1 1 5 9 12 12 13 24 24 48 50 35 35 25 16 17 19 19 22 38 45 45 45 37 42 42 50 49 49 47 54 52
nan nan nan nan nan nan nan nan nan nan nan nan nan nan nan 0 0 0 0 nan nan nan nan nan 0 1 1 1 0 0 nan 1 3 3 3 1 1 2 2 5 9 8 8 11 24 24 36 39 27 27 22 19 18 18 18 22 35 36 36 37 45 44 44 49 58 58 58 51 37
nan nan nan nan nan nan nan nan nan nan nan nan nan nan nan nan 0 0 0 0 nan nan nan 0 1 1 1 1 0 0 nan 0 12 3 3 1 2 2 2 4 7 7 7 10 21 21 26 26 23 23 19 18 18 21 21 26 29 30 30 36 49 45 45 51 61 61 60 55 36
nan nan nan nan nan nan nan nan nan nan nan nan 0 nan nan nan 0 0 0 0 nan 0 0 2 2 2 2 0 0 0 0 1 5 2 2 1 2 2 2 3 5 6 6 10 14 14 13 17 20 20 24 21 22 21 21 26 25 26 26 32 41 46 46 50 58 58 59 48 36
nan nan nan nan nan nan nan nan nan nan nan nan 0 nan nan 0 0 0 0 0 nan 0 0 3 2 1 1 1 1 1 2 3 3 2 2 2 3 3 3 4 6 8 8 8 8 8 6 13 22 22 33 40 23 22 22 21 25 25 25 28 34 38 38 46 59 59 59 47 34
nan nan nan nan 0 0 0 nan nan nan nan nan 0 0 0 0 2 1 1 0 0 1 1 2 1 1 1 2 3 3 4 4 3 3 3 4 4 3 3 4 7 7 7 7 5 5 4 9 21 21 32 37 30 24 24 25 25 25 25 27 31 33 33 44 53 53 50 43 32
nan nan nan 0 1 1 0 1 0 0 nan nan 0 0 0 1 3 1 1 0 2 3 3 1 2 3 3 4 6 6 8 8 6 5 5 5 4 4 4 6 6 7 7 5 3 3 4 8 21 21 31 34 29 27 27 26 26 28 28 28 29 31 31 39 42 42 41 37 31
nan nan nan nan nan nan 2 0 0 0 nan 0 0 1 1 10 4 1 1 1 5 2 2 1 3 5 5 7 10 10 6 7 8 9 9 8 7 8 8 8 9 8 8 4 3 3 7 13 23 23 29 29 25 24 24 23 26 27 27 28 31 29 29 31 33 33 34 35 29
nan nan nan nan nan nan 3 0 0 0 0 0 1 1 1 6 2 1 1 3 3 2 2 3 4 7 7 8 7 7 7 5 6 9 9 9 11 12 12 12 11 8 8 3 4 4 8 15 19 19 23 17 17 19 19 21 24 27 27 29 31 28 28 28 31 31 31 30 28
nan nan nan nan 1 1 3 0 1 1 1 1 2 1 1 1 0 3 3 3 3 3 3 4 6 8 8 6 9 9 8 6 7 8 8 8 10 13 13 14 12 8 8 7 5 5 9 16 19 19 21 11 11 15 15 19 25 29 29 28 29 27 27 26 28 28 29 26 25
nan nan nan 0 2 2 2 2 1 1 1 1 3 2 2 1 2 4 4 3 4 4 4 6 9 10 10 5 7 7 7 6 6 6 6 9 12 15 15 17 17 12 12 10 7 7 10 19 26 26 23 11 9 11 11 16 28 32 32 30 27 23 23 21 23 23 26 23 21
nan nan nan 0 1 1 3 3 2 2 1 1 3 2 2 1 2 4 4 3 5 6 6 10 12 7 7 6 7 7 7 7 8 8 8 9 12 17 17 18 23 20 20 12 11 11 16 14 17 17 19 15 8 9 9 16 33 35 35 29 23 19 19 19 19 19 20 18 20
nan 0 0 1 1 1 2 3 2 2 1 2 3 2 2 0 2 3 3 4 7 6 6 7 9 10 10 8 8 8 9 9 10 11 11 13 14 15 15 15 25 22 22 19 21 21 19 16 13 13 13 12 9 7 7 18 37 34 34 31 24 22 22 18 16 16 16 15 17
nan nan nan 0 1 1 2 3 2 2 2 2 4 5 5 1 3 6 6 7 6 8 8 8 7 8 8 10 10 10 10 10 12 13 13 14 19 21 21 22 21 21 21 18 19 19 19 19 14 14 12 12 7 9 9 25 40 32 32 26 22 19 19 13 15 15 14 13 13
nan 0 0 1 1 1 2 1 1 1 2 3 6 6 6 3 4 11 11 12 6 7 7 10 7 4 4 13 12 12 12 15 15 15 15 20 27 31 31 27 18 17 17 17 17 17 15 12 14 14 14 10 6 12 12 37 43 27 27 24 22 14 14 16 14 14 13 13 15
1 3 3 4 4 4 6 7 6 6 7 9 11 8 8 8 10 9 9 13 11 16 16 15 19 14 14 15 14 14 21 20 22 20 20 24 29 28 28 25 20 12 12 15 15 15 16 13 11 11 9 7 6 15 15 47 44 35 35 26 15 16 16 10 7 7 3 6 11
1 3 3 4 5 5 11 12 9 9 10 11 12 12 12 13 12 11 11 12 15 15 15 16 12 13 13 15 15 15 26 22 23 23 23 23 27 28 28 27 17 12 12 12 17 17 15 11 7 7 7 5 4 14 14 48 41 27 27 21 11 8 8 4 3 3 4 6 6
3 4 4 4 8 8 12 12 11 11 13 8 16 17 17 14 14 17 17 18 10 14 14 13 11 13 13 15 16 16 16 18 18 19 19 21 29 32 32 28 19 12 12 15 15 15 10 8 4 4 4 2 2 8 8 47 37 26 26 6 5 5 5 4 4 4 5 5 6
4 5 5 7 11 11 13 13 15 15 16 16 19 18 18 14 15 17 17 17 13 14 14 11 10 12 12 12 14 14 15 18 21 20 20 24 34 38 38 30 14 17 17 12 7 7 4 4 3 3 1 nan 1 38 38 44 19 15 15 1 3 8 8 6 4 4 6 5 7
6 7 7 11 15 15 18 16 18 18 16 18 18 19 19 14 17 20 20 16 14 13 13 8 7 11 11 10 11 11 16 17 17 19 19 26 32 36 36 31 14 12 12 9 2 2 0 2 3 3 nan nan 23 56 56 33 14 3 3 0 1 5 5 7 4 4 8 10 11
10 10 10 14 17 17 24 21 24 24 26 24 23 20 20 18 18 19 19 18 19 14 14 11 9 11 11 13 15 15 15 16 16 19 19 23 29 35 35 25 20 11 11 3 0 0 nan 0 1 1 nan nan 40 34 34 5 7 0 0 nan 0 1 1 2 6 6 12 18 13
11 12 12 12 17 17 19 22 24 24 25 23 22 19 19 20 20 22 22 22 18 16 16 14 13 11 11 14 16 16 15 15 17 17 17 19 29 32 32 28 19 5 5 0 9 9 18 18 nan nan nan 14 63 12 12 10 8 1 1 nan nan nan nan 1 6 6 12 20 8
12 13 13 15 16 16 18 22 24 24 27 26 24 21 21 22 23 21 21 21 17 14 14 15 14 12 12 17 16 16 16 14 15 16 16 20 26 33 33 24 14 0 0 3 86 86 211 193 49 49 nan 20 21 7 7 15 5 0 0 nan 0 1 1 5 16 16 16 18 3
10 12 12 14 15 15 18 21 23 23 23 24 24 22 22 24 22 24 24 20 17 13 13 14 13 20 20 10 11 11 11 8 10 12 12 16 27 23 23 16 8 nan nan 28 120 120 230 365 359 359 120 35 13 3 3 8 3 1 1 nan 0 5 5 15 23 23 28 11 4
6 8 8 9 11 11 12 17 20 20 19 20 21 23 23 25 20 26 26 22 18 13 13 10 10 20 20 4 3 3 2 3 7 8 8 14 24 24 24 11 4 2 2 60 164 164 286 416 442 442 259 70 21 8 8 9 3 12 12 5 3 15 15 26 32 32 27 13 8
4 5 5 6 6 6 7 12 16 16 17 18 20 22 22 23 25 24 24 21 16 11 11 7 6 4 4 1 1 1 0 1 1 5 5 9 13 14 14 6 1 12 12 93 194 194 355 457 377 377 202 52 30 25 25 12 3 5 5 19 17 31 31 33 30 30 23 13 6
2 4 4 5 5 5 5 11 13 13 14 18 18 19 19 23 26 25 25 18 11 7 7 4 1 nan nan nan 0 0 0 0 0 1 1 7 8 5 5 4 nan 20 20 124 218 218 400 479 259 259 142 37 2 3 3 6 7 7 7 16 30 45 45 31 26 26 20 17 10
2 3 3 5 4 4 4 9 10 10 12 16 15 20 20 20 23 18 18 17 10 6 6 4 0 nan nan nan 0 0 nan nan nan 0 0 3 4 3 3 3 0 18 18 124 243 243 408 462 215 215 130 35 4 2 2 5 15 22 22 29 44 75 75 34 16 16 16 16 16
2 4 4 4 6 6 6 8 11 11 10 12 14 18 18 20 19 16 16 16 13 12 12 5 0 nan nan nan nan nan nan nan nan nan nan 0 7 2 2 1 nan 15 15 133 282 282 453 491 248 248 132 41 10 4 4 12 28 29 29 29 47 93 93 42 7 7 14 23 15
4 4 4 4 7 7 8 9 11 11 11 11 13 13 13 15 16 15 15 13 14 11 11 4 0 nan nan nan nan nan nan nan nan nan nan 1 2 0 0 2 nan 18 18 156 318 318 488 503 310 310 172 47 19 14 14 14 18 14 14 13 50 86 86 30 14 14 19 29 25
6 4 4 6 6 6 10 10 11 11 14 14 12 11 11 12 10 13 13 11 14 10 10 4 1 nan nan nan nan nan nan nan 0 1 1 1 0 0 0 3 nan 39 39 205 344 344 501 503 335 335 211 77 23 13 13 12 6 2 2 5 42 68 68 40 15 15 13 23 26
7 6 6 7 9 9 10 12 13 13 14 14 13 11 11 9 10 11 11 12 13 10 10 5 2 nan nan nan nan nan nan 1 0 nan nan nan nan 0 0 2 nan 86 86 216 358 358 508 529 328 328 214 100 27 18 18 8 nan nan nan 3 21 55 55 49 35 35 24 21 21
6 8 8 10 13 13 14 15 16 16 16 16 14 12 12 9 9 10 10 15 18 10 10 5 2 nan nan nan nan nan 0 1 nan nan nan nan nan 0 0 2 1 104 104 209 353 353 492 568 378 378 202 109 28 17 17 11 2 0 0 15 19 41 41 55 57 57 45 30 19
7 7 7 9 11 11 13 14 16 16 16 16 16 14 14 10 9 9 9 23 20 9 9 5 3 0 0 nan nan nan 1 0 0 0 0 0 nan nan nan 1 0 85 85 187 348 348 478 590 437 437 186 86 33 26 26 17 4 4 4 27 26 42 42 56 59 59 63 42 22
8 7 7 8 9 9 11 12 13 13 10 13 13 12 12 11 9 16 16 23 15 9 9 6 3 1 1 0 nan nan 0 1 0 1 1 2 0 0 0 1 0 38 38 171 343 343 456 564 445 445 232 54 22 27 27 24 13 11 11 33 24 31 31 52 67 67 63 59 38
9 9 9 8 9 9 11 9 8 8 6 7 10 11 11 13 15 22 22 33 17 12 12 7 6 3 3 1 1 1 1 2 3 5 5 4 0 1 1 1 1 10 10 139 330 330 416 531 490 490 313 33 20 26 26 24 16 11 11 21 15 17 17 38 71 71 69 82 126
12 10 10 12 11 11 10 7 6 6 5 7 8 9 9 13 12 19 19 33 17 13 13 11 7 6 6 5 2 2 1 2 11 11 11 3 1 11 11 3 1 7 7 126 310 310 373 503 526 526 404 95 22 18 18 22 28 13 13 12 8 22 22 28 65 65 60 89 237
11 13 13 11 12 12 10 6 5 5 4 6 7 8 8 12 11 24 24 32 20 16 16 14 9 8 8 25 7 7 2 2 7 18 18 7 11 67 67 13 0 10 10 123 292 292 339 452 570 570 418 135 54 26 26 16 15 15 15 10 9 16 16 47 75 75 37 32 175
5 7 7 9 9 9 8 6 4 4 4 5 6 9 9 14 23 21 21 20 19 11 11 8 16 16 16 28 8 8 4 4 10 15 15 21 33 97 97 16 0 3 3 108 308 308 329 413 585 585 415 56 53 59 59 27 17 20 20 20 12 20 20 53 61 61 17 4 22